Weather History for KCEZ - March, 2013

Change the Weather History Date:

Thursday, March 21, 2013

  Actual Average Record
Temperature  
Mean Temperature 43 °F 40 °F  
Max Temperature 61 °F 56 °F 73 °F (2004)
Min Temperature 24 °F 25 °F 18 °F (2002)
Degree Days  
Heating Degree Days 22 25  
Month to date heating degree days 489 569  
Since 1 July heating degree days 5355 5299  
Cooling Degree Days 0 0  
Month to date cooling degree days 0 0  
Year to date cooling degree days 0 0  
Moisture  
Dew Point 16 °F    
Average Humidity 38    
Maximum Humidity 64    
Minimum Humidity 11    
Precipitation  
Precipitation 0.00 in 0.03 in 0.04 in (2007)
Month to date precipitation 0.30 0.82  
Year to date precipitation 2.51 2.71  
Sea Level Pressure  
Sea Level Pressure 29.71 in    
Wind  
Wind Speed 9 mph (NNW)    
Max Wind Speed 29 mph    
Max Gust Speed 37 mph    
Visibility 10 miles    
Events      
T = Trace of Precipitation, MM = Missing Value Source: NWS Daily Summary

Daily Weather History Graph

Daily Weather History Graph

Search for Another Location

Airport or City:

Trip Planner

Search our weather history database for the weather conditions in past years. The results will help you decide how hot, cold, wet, or windy it might be!

Date:

Astronomy

Mar. 21, 2013 Rise Set
Actual Time 7:16 AM MDT 7:27 PM MDT
Civil Twilight 6:50 AM MDT 7:53 PM MDT
Nautical Twilight 6:19 AM MDT 8:24 PM MDT
Astronomical Twilight 5:48 AM MDT 8:55 PM MDT
Moon 2:06 PM MDT (3/21) 3:33 AM MDT (3/21)
Length of Visible Light 13h 03m
Length of Day
12h 11m
Waxing Gibbous, 69% of the Moon is Illuminated
Mar 21
Waxing Gibbous
Mar 27
Full
Apr 2
Last Quarter
Apr 10
New
Apr 18
First Quarter

Hourly Weather History & Observations

Time (MDT) Temp. Windchill Dew Point Humidity Pressure Visibility Wind Dir Wind Speed Gust Speed Precip Events Conditions
12:53 AM 39.9 °F - 27.0 °F 60% 29.78 in 10.0 mi Calm Calm - N/A   Clear
1:53 AM 41.0 °F - 27.0 °F 57% 29.75 in 10.0 mi Calm Calm - N/A   Overcast
2:53 AM 39.9 °F 37.8 °F 28.0 °F 63% 29.74 in 10.0 mi ESE 3.5 mph - N/A   Partly Cloudy
3:53 AM 39.9 °F 37.8 °F 27.0 °F 60% 29.71 in 10.0 mi Variable 3.5 mph - N/A   Clear
4:53 AM 42.1 °F - 28.0 °F 58% 29.70 in 10.0 mi Calm Calm - N/A   Overcast
5:49 AM 46.4 °F 40.1 °F 24.8 °F 43% 29.81 in 10.0 mi SSW 15.0 mph - N/A   Mostly Cloudy
5:53 AM 46.9 °F - 25.0 °F 42% 29.69 in 10.0 mi SSW 11.5 mph - N/A   Mostly Cloudy
6:53 AM 43.0 °F 41.3 °F 25.0 °F 49% 29.71 in 10.0 mi North 3.5 mph - N/A   Clear
7:53 AM 37.0 °F 33.3 °F 25.0 °F 62% 29.72 in 10.0 mi ENE 4.6 mph - N/A   Clear
8:53 AM 46.0 °F 44.8 °F 27.0 °F 47% 29.71 in 10.0 mi NE 3.5 mph - N/A   Clear
9:53 AM 53.1 °F - 26.1 °F 35% 29.67 in 10.0 mi West 12.7 mph 20.7 mph N/A   Clear
10:53 AM 55.9 °F - 19.9 °F 25% 29.63 in 10.0 mi WSW 16.1 mph 24.2 mph N/A   Clear
11:53 AM 57.0 °F - 21.0 °F 25% 29.65 in 10.0 mi West 21.9 mph 33.4 mph N/A   Clear
12:53 PM 60.1 °F - 18.0 °F 20% 29.64 in 10.0 mi West 20.7 mph 31.1 mph N/A   Mostly Cloudy
1:53 PM 60.1 °F - 8.1 °F 13% 29.63 in 10.0 mi NW 20.7 mph 31.1 mph N/A   Clear
2:53 PM 60.1 °F - 10.9 °F 14% 29.63 in 10.0 mi WNW 11.5 mph 27.6 mph N/A   Clear
3:53 PM 59.0 °F - 14.0 °F 17% 29.63 in 10.0 mi West 15.0 mph 27.6 mph N/A   Clear
4:53 PM 55.9 °F - 12.9 °F 18% 29.66 in 10.0 mi North 20.7 mph 29.9 mph N/A   Clear
5:53 PM 54.0 °F - 3.0 °F 13% 29.68 in 10.0 mi NNW 15.0 mph 28.8 mph N/A   Clear
6:53 PM 50.0 °F - -2.9 °F 11% 29.71 in 10.0 mi North 15.0 mph 21.9 mph N/A   Clear
7:53 PM 44.1 °F 42.5 °F -2.9 °F 14% 29.76 in 10.0 mi Variable 3.5 mph - N/A   Clear
8:53 PM 37.0 °F 34.5 °F 1.0 °F 22% 29.78 in 10.0 mi Variable 3.5 mph - N/A   Clear
9:53 PM 32.0 °F 28.7 °F 5.0 °F 32% 29.78 in 10.0 mi ENE 3.5 mph - N/A   Clear
10:53 PM 28.0 °F 22.8 °F 5.0 °F 38% 29.81 in 10.0 mi East 4.6 mph - N/A   Clear
11:53 PM 26.1 °F 19.4 °F 7.0 °F 44% 29.80 in 10.0 mi ENE 5.8 mph - N/A   Clear